Montgomery, NY

12:07 AM EST on December 17, 2017 (GMT -0500)
Orange County

Weather History for KMGJ - April, 2013

Change the Weather History Date:

Thursday, April 25, 2013

  Actual Average (KSWF) Record (KSWF)
Temperature  
Mean Temperature 50 °F -  
Max Temperature 63 °F 61 °F 79 °F (1979)
Min Temperature 39 °F 39 °F 30 °F (1978)
Degree Days  
Heating Degree Days 14    
Moisture  
Dew Point 29 °F    
Average Humidity 45    
Maximum Humidity 80    
Minimum Humidity 18    
Precipitation  
Precipitation 0.03 in - - ()
Sea Level Pressure  
Sea Level Pressure 30.13 in    
Wind  
Wind Speed 9 mph (WNW)    
Max Wind Speed 17 mph    
Max Gust Speed 29 mph    
Visibility 10 miles    
Events Rain    
Averages and records for this station are not official NWS values.
T = Trace of Precipitation, MM = Missing Value Source: NWS Daily Summary

Daily Weather History Graph

Daily Weather History Graph

Search for Another Location

Airport or City:

Trip Planner

Search our weather history database for the weather conditions in past years. The results will help you decide how hot, cold, wet, or windy it might be!

Date:

Astronomy

Apr. 25, 2013 Rise Set
Actual Time 6:01 AM EDT 7:48 PM EDT
Civil Twilight 5:32 AM EDT 8:18 PM EDT
Nautical Twilight 4:56 AM EDT 8:54 PM EDT
Astronomical Twilight 4:17 AM EDT 9:33 PM EDT
Moon 7:59 PM EDT (4/25) 5:43 AM EDT (4/25)
Length of Visible Light 14h 45m
Length of Day
13h 46m
Full, 100% of the Moon is Illuminated
Apr 25
Full
Apr 25
Full
May 2
Last Quarter
May 9
New
May 18
First Quarter

Hourly Weather History & Observations

Time (EDT) Temp. Windchill Dew Point Humidity Pressure Visibility Wind Dir Wind Speed Gust Speed Precip Events Conditions
12:54 AM 60.1 °F - 54.0 °F 80% 29.83 in 10.0 mi SW 11.5 mph - 0.02 in Rain Light Rain
1:54 AM 57.0 °F - 45.0 °F 64% 29.89 in 10.0 mi WNW 12.7 mph 21.9 mph 0.01 in   Mostly Cloudy
2:54 AM 48.9 °F - 35.1 °F 59% 29.95 in 10.0 mi WNW 9.2 mph 21.9 mph N/A   Partly Cloudy
3:54 AM 48.0 °F - 33.1 °F 56% 30.00 in 10.0 mi WNW 17.3 mph 28.8 mph N/A   Mostly Cloudy
4:54 AM 45.0 °F 38.5 °F 30.0 °F 56% 30.04 in 10.0 mi NW 13.8 mph 23.0 mph N/A   Scattered Clouds
5:54 AM 44.1 °F 39.5 °F 30.0 °F 58% 30.10 in 10.0 mi WNW 8.1 mph - N/A   Scattered Clouds
6:54 AM 44.1 °F 40.1 °F 28.9 °F 55% 30.13 in 10.0 mi WNW 6.9 mph - N/A   Partly Cloudy
7:54 AM 45.0 °F 38.9 °F 27.0 °F 49% 30.16 in 10.0 mi WNW 12.7 mph - N/A   Clear
8:54 AM 48.0 °F - 27.0 °F 44% 30.16 in 10.0 mi NW 10.4 mph 20.7 mph N/A   Clear
9:54 AM 48.9 °F - 26.1 °F 41% 30.18 in 10.0 mi WNW 15.0 mph 21.9 mph N/A   Clear
10:54 AM 52.0 °F - 27.0 °F 38% 30.18 in 10.0 mi NNW 8.1 mph - N/A   Clear
11:54 AM 55.0 °F - 25.0 °F 31% 30.18 in 10.0 mi NNW 15.0 mph - N/A   Clear
12:54 PM 59.0 °F - 25.0 °F 27% 30.17 in 10.0 mi WNW 11.5 mph 16.1 mph N/A   Clear
1:54 PM 60.1 °F - 24.1 °F 25% 30.16 in 10.0 mi Calm Calm - N/A   Clear
2:54 PM 60.1 °F - 23.0 °F 24% 30.15 in 10.0 mi Variable 4.6 mph - N/A   Clear
3:54 PM 61.0 °F - 21.0 °F 21% 30.14 in 10.0 mi Calm Calm - N/A   Clear
4:54 PM 62.1 °F - 21.0 °F 21% 30.14 in 10.0 mi Variable 6.9 mph - N/A   Clear
5:54 PM 62.1 °F - 17.1 °F 18% 30.15 in 10.0 mi Calm Calm - N/A   Clear
6:54 PM 62.1 °F - 19.9 °F 20% 30.17 in 10.0 mi Calm Calm - N/A   Clear
7:54 PM 54.0 °F - 32.0 °F 43% 30.18 in 10.0 mi Calm Calm - N/A   Clear
8:54 PM 48.0 °F - 33.1 °F 56% 30.21 in 10.0 mi Calm Calm - N/A   Clear
9:54 PM 44.1 °F - 32.0 °F 63% 30.23 in 10.0 mi Calm Calm - N/A   Clear
10:54 PM 39.0 °F - 30.9 °F 73% 30.25 in 10.0 mi Calm Calm - N/A   Clear
11:54 PM 39.0 °F - 30.0 °F 70% 30.26 in 10.0 mi Calm Calm - N/A   Clear